Regional Weather Roundup
Issued by NWS

Home | Current Version | Previous Version | Graphics & Text | Print | Product List | Glossary On
Versions: 1 2 3 4 5 6 7 8 9 10 11 12 13 14 15 16 17 18 19 20 21 22 23 24 25 26 27 28 29 30 31 32 33 34 35 36 37 38 39 40 41 42 43 44 45 46 47 48 49 50
000
ASUS43 KOAX 201510
RWRNE

WEATHER ROUNDUP FOR NEBRASKA
NATIONAL WEATHER SERVICE OMAHA NE
1000 AM CDT WED AUG 20 2014

NOTES: SATELLITE DATA IS BEING USED TO AUGMENT CLOUD COVER ABOVE
       12000 FEET.
       "FAIR" INDICATES FEW OR NO CLOUDS BELOW 12,000 FEET WITH NO
       SIGNIFICANT WEATHER AND/OR OBSTRUCTIONS TO VISIBILITY.

  * THESE STATIONS DO NOT REPORT WEATHER SUCH AS RAIN...SNOW OR FOG.

NEZ001>004-019>022-054>056-201600-
NEBRASKA PANHANDLE

CITY           SKY/WX    TMP DP  RH WIND       PRES   REMARKS
SCOTTSBLUFF    PTSUNNY   72  57  59 W7        29.85R
ALLIANCE       PTSUNNY   72  54  53 CALM      29.83R
CHADRON        PTSUNNY   76  54  46 S3        29.76R
KIMBALL        CLOUDY    72  55  54 NW6       29.89S
SIDNEY         PTSUNNY   74  55  51 NW10      29.87S
$$

NEZ057>060-069>072-079>082-201600-
SOUTHWEST NEBRASKA

CITY           SKY/WX    TMP DP  RH WIND       PRES   REMARKS
NORTH PLATTE   PTSUNNY   75  65  70 W6        29.78R
IMPERIAL       CLOUDY    69  63  81 SW6       29.81S
LEXINGTON      CLOUDY    74  68  80 S8        29.76F
MCCOOK         PTSUNNY   81  65  58 S12       29.77F
OGALLALA       CLOUDY    68  64  86 CALM      29.80S
$$

NEZ005>010-023>029-035>040-094-201600-
NORTH CENTRAL NEBRASKA

CITY           SKY/WX    TMP DP  RH WIND       PRES   REMARKS
VALENTINE      CLOUDY    72  67  84 SE7       29.76F
AINSWORTH      PTSUNNY   73  69  87 SE5       29.77S
BROKEN BOW     PTSUNNY   76  67  73 E3        29.77S
O`NEILL        SUNNY     75  70  84 SE15G21   29.77F
ORD            PTSUNNY   75  68  78 SE9       29.77R
THEDFORD       PTSUNNY   73  65  75 CALM      29.80R
$$

NEZ041-046>049-061>064-073>077-083>087-201600-
SOUTH CENTRAL NEBRASKA

CITY           SKY/WX    TMP DP  RH WIND       PRES   REMARKS
GRAND ISLAND   CLOUDY    75  66  73 S9        29.79R
AURORA         CLOUDY    77  68  74 S9        29.79S
HASTINGS       CLOUDY    75  64  68 S9        29.79S
HEBRON         CLOUDY    80  64  59 S8        29.81S
HOLDREGE       PTSUNNY   77  66  68 S12       29.78S
KEARNEY *      CLOUDY    72  64  78 SE13      29.78S
YORK           CLOUDY    73 N/A N/A SE7       29.81F
$$

NEZ011>018-030>034-042>045-201600-
NORTHEAST NEBRASKA

CITY           SKY/WX    TMP DP  RH WIND       PRES   REMARKS
NORFOLK        CLOUDY    73  68  84 SE16      29.81R
ALBION         CLOUDY    72  66  81 E3        29.82R
BLAIR          CLOUDY    73  67  82 E13       29.85S
COLUMBUS *     CLOUDY    73  70  88 E8        29.82F
FREMONT        CLOUDY    74  67  79 E10       29.85R
TEKAMAH        CLOUDY    73  68  84 SE12      29.83S
WAYNE          CLOUDY    71  68  90 E8        29.83F
$$

NEZ050>053-065>068-078-088>093-201600-
SOUTHEAST NEBRASKA

CITY           SKY/WX    TMP DP  RH WIND       PRES   REMARKS
LINCOLN        CLOUDY    80  66  62 VRB3      29.84R
OMAHA EPPLEY   CLOUDY    73  66  78 E14       29.85R
BEATRICE       CLOUDY    79  70  73 S9        29.82S
FALLS CITY     SUNNY     83  71  67 SW9       29.84S
NEBRASKA CITY  PTSUNNY   80  69  69 CALM      29.85R
PLATTSMOUTH    PTSUNNY   77  70  77 E8        29.87R
$$

NEZ044-045-051>053-067-201600-
OMAHA AREA

CITY           SKY/WX    TMP DP  RH WIND       PRES   REMARKS
OMAHA EPPLEY   CLOUDY    73  66  78 E14       29.85R
BLAIR          CLOUDY    73  67  82 E13       29.85S
FREMONT        CLOUDY    74  67  79 E10       29.85R
MILLARD        PTSUNNY   74  68  80 E5        29.84S
OFFUTT AFB     PTSUNNY   75  74  99 E9        29.85R
PLATTSMOUTH    PTSUNNY   77  70  77 E8        29.87R
WAHOO          FAIR      75  69  81 E10       29.83R
$$



USA.gov is the U.S. government's official web portal to all federal, state and local government web resources and services.